Volver al catálogo

COSMOS 2251 DEB

ActivoLEO
NORAD 47074·DEBRIS·🇷🇺 Russia

Lanzado Jun 16, 1993 desde Plesetsk Cosmodrome

Loading…

Próximos Pases (próximas 24 horas)

TLE

ActualizadoSource: Space-Track

Época: Sep 14, 2026, 11:51 UTC

1 47074U 93036BYE 26257.49385039  .00002857  00000-0  85308-3 0  9995
2 47074  74.0916 163.1792 0138835 121.4288  51.8995 14.37961353 66432

Sigue COSMOS 2251 DEB en tiempo real con AllMySat

Download on the App Store